This is the latest recevied weather packets stored in our database for station/object W1SCW. If no packets are shown the sender has not sent any weather packets the latest 10 day(s).
| Time | Temp. | Humidity | Pressure | Rain* | Wind** | Luminosity | Snow |
|---|---|---|---|---|---|---|---|
| 1777763892 | 24.44° C | 46% | 1016.8 hPa | 0 mm | - | 183 W/m² | - |
| 1777763590 | 24.44° C | 45% | 1016.7 hPa | 0 mm | - | 201 W/m² | - |
| 1777763288 | 24.44° C | 45% | 1016.8 hPa | 0 mm | - | 215 W/m² | - |
| 1777762986 | 24.44° C | 44% | 1016.6 hPa | 0 mm | - | 233 W/m² | - |
| 1777762682 | 24.44° C | 45% | 1016.5 hPa | 0 mm | - | 249 W/m² | - |
| 1777762379 | 25° C | 45% | 1016.6 hPa | 0 mm | - | 265 W/m² | - |
| 1777762075 | 25° C | 45% | 1016.6 hPa | 0 mm | - | 282 W/m² | - |
| 1777761772 | 25° C | 45% | 1016.7 hPa | 0 mm | - | 301 W/m² | - |
| 1777761469 | 25° C | 45% | 1016.7 hPa | 0 mm | - | 320 W/m² | - |
| 1777761168 | 25° C | 45% | 1016.5 hPa | 0 mm | - | 339 W/m² | - |
| 1777760865 | 25° C | 44% | 1016.7 hPa | 0 mm | - | 358 W/m² | - |
| 1777760562 | 25° C | 45% | 1016.7 hPa | 0 mm | - | 379 W/m² | - |
| 1777760257 | 25° C | 44% | 1016.8 hPa | 0 mm | - | 394 W/m² | - |
| 1777759954 | 25° C | 44% | 1016.5 hPa | 0 mm | - | 415 W/m² | - |
| 1777759651 | 25° C | 45% | 1016.6 hPa | 0 mm | - | 433 W/m² | - |
| 1777759347 | 25.56° C | 45% | 1016.9 hPa | 0 mm | - | 453 W/m² | - |
| 1777759044 | 25° C | 45% | 1017 hPa | 0 mm | - | 469 W/m² | - |
| 1777758741 | 25° C | 44% | 1016.9 hPa | 0 mm | - | 487 W/m² | - |
| 1777758438 | 25° C | 45% | 1016.8 hPa | 0 mm | - | 506 W/m² | - |
| 1777758135 | 24.44° C | 45% | 1016.9 hPa | 0 mm | - | 525 W/m² | - |
| 1777757832 | 25° C | 45% | 1016.9 hPa | 0 mm | - | 539 W/m² | - |
| 1777757530 | 25° C | 46% | 1016.9 hPa | 0 mm | - | 556 W/m² | - |
| 1777757228 | 25° C | 46% | 1017.1 hPa | 0 mm | - | 574 W/m² | - |
| 1777756926 | 25° C | 46% | 1016.9 hPa | 0 mm | - | 594 W/m² | - |
| 1777756622 | 25° C | 46% | 1017.2 hPa | 0 mm | - | 608 W/m² | - |
* Rain latest hour (hover to see other rain measurements)
** Current wind speed in m/s (hover to see current wind gust speed)